SCP
0 0 0 0 0 0 0 0 0 0 0 0 0 0 0 0 0 0 0 -0 -0 -0 0 0 -0 0 -0 -0 -0 -0 -0 -0 -0 -0 -0 -0 -0 0 0 0 0 0 0 0 0 0 0 0 0
0 0 0 0 0 0 0 0 0 0 0 0 0 0 0 0 0 0 0 0 -0 -0 0 0 -0 0 -0 -0 -0 -0 -0 -0 -0 -0 -0 -0 -0 0 0 0 0 0 0 0 0 0 0 0 0
0 0 0 0 0 0 0 0 0 0 0 0 0 0 0 0 0 0 0 0 0 0 0 0 -0 -0 -0 -0 -0 -0 -1 -0 -0 -0 -0 -0 -0 0 0 0 0 0 0 0 0 0 0 0 0
0 0 0 0 0 0 0 0 0 0 0 0 0 0 0 -0 0 0 0 0 0 0 -0 -0 -0 -0 -0 -0 -1 -1 -1 -0 -0 -0 -0 0 0 0 0 0 0 0 0 0 0 0 0 0 0
0 0 0 0 0 0 0 0 0 0 0 0 0 0 0 0 0 0 0 0 0 0 -0 0 -0 -0 -0 -0 -1 -1 -1 -0 -0 -0 0 0 0 0 0 0 0 0 0 0 0 0 0 0 0
0 0 0 0 0 0 0 0 0 0 0 0 0 0 0 0 0 0 0 0 0 0 0 0 0 -0 -0 -0 -0 -0 -0 -0 -0 -0 0 0 0 0 0 0 0 0 0 0 0 0 0 0 0
0 0 0 0 0 0 0 -0 0 0 0 0 0 0 0 0 0 0 0 0 0 0 0 0 0 0 -0 -0 -0 -0 -0 -0 -0 -0 0 0 0 0 0 0 0 0 0 0 0 0 0 0 0
0 0 0 0 -0 -0 0 0 0 0 0 -0 0 0 0 -0 0 0 0 0 0 0 0 0 0 0 -0 -0 0 -0 -0 -0 -0 -0 0 0 0 0 0 0 0 0 0 0 0 0 0 0 0
0 0 0 0 0 0 0 0 0 0 -0 0 0 0 0 0 0 0 0 0 0 0 0 0 0 0 0 -0 -0 0 -0 -0 -0 0 0 0 1 1 0 0 0 0 0 0 0 0 0 0 0
0 0 0 0 0 0 0 0 0 -0 -0 -0 -0 0 0 0 0 0 0 0 0 0 0 0 0 0 0 -0 -0 0 0 0 0 0 0 0 0 0 0 0 0 0 0 0 0 0 0 0 0
0 0 0 0 0 0 0 -0 -0 -0 0 -0 0 0 0 0 0 0 0 0 0 0 0 0 0 0 0 0 0 0 0 0 0 0 0 0 0 0 0 0 0 0 0 0 0 0 1 0 0
0 0 0 0 0 0 0 -0 -0 -0 0 -0 -0 -0 0 0 0 0 0 0 0 0 0 0 0 0 0 0 0 0 0 0 0 0 0 0 0 0 0 0 0 0 0 0 0 0 0 0 0
0 0 0 0 0 0 0 0 0 -0 -0 -0 -0 -0 0 0 0 0 0 0 0 0 0 0 0 0 0 0 0 0 0 0 0 0 0 0 0 0 0 0 0 0 0 0 0 0 0 0 0
0 0 0 0 0 0 0 0 0 -0 -0 -0 -0 -0 -0 0 0 0 0 0 0 1 1 0 0 0 0 0 0 0 0 0 0 0 0 0 0 0 0 0 0 0 0 0 0 0 0 0 0
0 0 0 -0 0 0 0 0 0 0 -0 -0 -0 -0 -0 0 0 0 0 0 0 1 1 1 1 0 0 0 0 0 0 0 0 0 0 0 0 0 0 0 0 0 0 0 0 0 0 0 0
0 0 0 0 0 0 0 0 0 0 0 0 -0 -0 -0 -0 0 0 0 0 0 1 2 2 2 1 0 0 0 0 0 0 0 0 0 0 0 0 0 0 0 0 0 0 0 0 0 0 0
0 0 0 0 0 0 0 0 0 0 0 0 0 -0 -0 -0 0 0 0 0 0 0 0 1 2 1 1 1 0 0 0 0 0 0 0 0 0 0 0 0 0 0 0 0 0 0 0 0 0
0 0 0 0 0 0 0 0 0 0 0 0 0 0 0 -0 -0 0 0 0 0 0 0 0 0 0 0 1 1 1 1 2 1 0 0 0 0 0 0 0 0 0 0 0 0 0 0 0 0
0 0 0 0 0 0 0 0 0 0 0 0 0 0 0 0 0 0 0 0 0 0 0 0 0 0 0 1 2 3 3 2 2 1 1 1 1 0 0 0 0 0 0 0 0 0 0 0 0
0 0 0 -0 0 0 0 0 0 0 -0 0 0 0 0 0 0 0 0 0 0 0 0 0 0 0 0 1 1 2 2 2 2 2 2 2 1 1 0 0 0 0 0 0 0 0 0 0 0
0 0 0 -0 -0 -0 -0 -0 -0 -0 -0 -0 -0 0 -0 0 0 0 0 0 0 0 0 0 0 0 0 1 2 0 0 0 1 2 2 2 2 2 1 0 0 0 0 0 0 0 0 0 0
0 0 0 0 0 -0 0 -0 -0 -0 -0 -0 0 0 0 0 0 0 0 0 0 0 0 0 0 0 0 0 1 2 2 2 2 2 1 1 1 2 2 1 1 1 0 0 0 0 0 0 0
0 0 0 0 0 0 0 0 -0 -0 -0 0 0 0 0 0 0 0 0 0 0 0 0 0 0 0 0 0 2 3 2 0 0 0 0 0 0 1 2 2 1 1 0 0 0 0 0 0 0
0 0 0 0 0 0 -0 0 -0 -0 -0 0 0 0 0 0 0 0 0 0 0 0 0 0 0 0 0 1 2 2 1 0 0 0 0 0 0 1 2 2 1 1 0 0 0 0 0 0 0
0 0 0 0 0 0 0 0 0 0 0 -0 -0 0 0 0 0 0 0 0 0 0 0 0 0 0 0 0 0 0 0 0 0 0 0 0 1 1 1 1 1 1 1 0 0 0 0 0 0
0 0 0 0 0 0 0 0 0 0 -0 -0 -0 0 0 0 0 0 0 0 0 0 0 0 0 0 0 0 0 0 0 0 0 0 0 0 1 1 1 1 1 0 1 1 0 0 0 0 0
0 0 0 0 0 0 0 0 0 0 0 -0 -0 0 0 0 0 -0 0 0 0 0 0 0 0 0 0 0 0 0 0 0 0 0 1 1 2 1 1 1 1 1 1 0 0 0 0 0 0
0 0 0 0 0 0 0 0 0 0 0 0 0 0 0 0 0 0 -0 0 0 0 0 0 0 0 0 0 0 0 0 0 0 1 1 1 1 2 1 0 0 1 1 0 0 0 0 0 0
0 0 0 0 0 0 0 0 0 0 0 -0 0 0 0 0 0 0 -0 0 0 0 0 0 0 0 0 0 0 0 0 1 1 1 1 1 1 1 0 0 0 1 0 0 0 0 0 0 0
0 0 0 0 0 0 0 0 0 -0 -0 0 0 0 0 0 0 0 0 0 0 0 0 0 0 0 0 0 0 0 1 1 1 1 1 1 1 1 0 0 1 0 1 0 0 0 0 0 0
Wind_Speed_500mb
11 4 6 3 5 9 7 14 5 13 18 6 19 18 21 41 15 12 28 79 76 80 78 71 65 61 58 59 59 58 56 52 50 48 45 40 37 35 31 28 25 23 22 20 18 17 16 15 14
5 5 3 5 7 3 11 8 6 13 22 51 54 29 15 15 48 16 61 86 84 84 80 76 70 67 61 59 58 56 56 53 50 46 42 39 35 30 27 24 22 20 18 17 16 14 14 13 12
4 6 2 7 6 11 10 9 4 15 42 44 19 48 20 9 32 49 59 86 93 87 83 78 73 71 64 61 57 56 54 52 49 44 38 34 31 28 25 23 20 18 15 13 12 11 12 11 10
8 4 3 6 20 12 8 12 13 28 47 15 25 27 18 33 20 63 82 87 95 89 84 80 76 73 69 63 58 56 53 50 46 42 37 33 30 27 24 21 18 15 13 11 10 8 8 8 8
10 5 2 7 13 9 7 14 19 19 16 43 61 17 13 26 35 65 93 90 100 92 86 82 77 75 73 65 58 53 51 48 44 40 37 32 29 26 23 20 17 15 14 12 10 8 8 7 5
5 6 3 11 19 3 6 13 15 10 35 49 32 56 9 17 40 71 84 95 93 90 87 82 77 76 73 67 59 52 49 46 41 39 35 32 30 27 24 22 20 19 18 17 16 13 12 11 9
8 8 11 11 17 10 2 5 9 15 15 18 51 8 14 25 31 66 86 101 97 90 88 83 80 77 73 69 60 53 50 46 41 40 37 34 32 30 28 27 26 24 23 23 22 19 18 19 16
9 7 7 11 25 10 3 26 26 24 17 40 34 14 43 41 44 74 89 103 99 94 86 83 81 78 76 73 64 55 51 47 42 40 38 36 36 36 36 34 32 30 30 30 29 26 24 26 24
10 5 14 18 12 8 31 16 20 32 26 39 25 43 72 18 52 74 89 97 98 94 89 86 82 79 78 74 68 60 52 49 45 43 41 40 41 42 42 40 37 36 36 36 35 34 32 32 31
9 7 12 5 5 13 51 14 38 26 53 49 47 56 47 11 38 71 86 90 90 91 89 86 82 81 79 74 71 65 58 54 50 47 46 45 43 43 45 45 43 43 42 42 42 42 40 39 39
8 12 5 7 11 16 24 47 38 29 44 33 42 55 44 34 18 36 56 64 82 92 87 86 83 79 76 74 71 66 62 56 52 50 49 47 45 46 51 52 50 49 47 48 48 48 49 45 45
9 11 8 7 27 26 26 49 43 48 71 58 43 46 50 37 27 33 38 39 62 71 91 90 86 80 78 76 72 68 62 59 55 50 52 53 51 52 55 56 55 52 51 51 52 52 52 50 48
8 5 16 19 22 24 37 37 36 76 86 62 51 47 43 36 36 35 52 46 55 66 82 90 87 80 80 81 76 70 66 62 56 55 57 56 56 56 58 58 56 53 52 53 54 53 54 53 51
9 10 19 7 19 19 18 26 25 77 43 54 53 44 35 31 29 25 27 60 61 60 80 92 91 85 91 86 76 70 61 59 55 63 63 60 59 59 57 57 55 49 48 50 50 49 51 51 48
12 10 13 9 17 16 24 27 44 72 44 53 60 60 43 29 35 31 28 23 41 62 70 84 92 89 88 79 63 62 46 38 49 61 64 65 56 57 52 52 50 42 39 42 45 43 45 45 44
8 8 7 11 12 15 16 46 10 23 29 45 44 50 37 32 29 33 31 27 25 36 61 86 87 86 81 78 72 65 48 35 46 55 60 65 55 54 54 54 52 40 38 38 38 38 40 40 41
11 1 4 14 10 9 12 12 7 40 22 37 44 38 45 39 24 33 36 39 40 37 50 66 74 76 65 67 60 31 43 67 55 67 62 65 56 55 59 61 56 45 42 43 39 41 39 41 37
11 5 5 10 11 5 21 33 12 26 26 27 36 48 55 58 47 35 28 41 45 46 50 57 65 78 82 87 85 75 63 78 101 91 70 66 60 56 60 63 60 54 47 48 46 45 40 41 33
8 8 8 9 9 12 14 33 25 20 26 25 37 43 46 48 53 43 37 30 48 54 59 60 64 66 71 77 83 86 82 80 80 102 78 75 67 57 59 65 60 59 52 53 51 48 46 42 34
2 1 6 8 12 17 26 44 29 9 14 27 35 37 45 60 60 54 45 41 30 43 66 71 74 74 96 112 107 105 100 93 92 100 85 79 68 61 60 65 61 63 57 57 56 53 54 44 39
4 5 6 10 12 9 17 40 15 6 15 36 36 41 41 47 66 66 58 46 42 44 43 72 81 73 64 87 101 98 103 105 103 96 92 78 74 61 63 62 66 63 56 55 55 53 55 46 42
6 1 6 12 12 8 7 27 35 26 20 13 27 37 52 49 56 59 65 61 50 49 46 46 67 76 68 81 91 100 110 114 111 102 95 79 69 59 60 65 66 62 54 48 45 48 49 41 50
11 4 7 5 10 6 7 8 39 11 25 28 22 30 26 32 43 49 53 54 56 52 52 47 51 67 66 65 71 92 109 117 114 104 82 65 57 56 59 64 66 58 51 42 40 44 44 43 45
3 5 10 8 2 5 13 13 31 6 11 16 9 25 29 36 44 47 51 55 59 60 55 50 43 59 76 72 70 83 98 112 114 90 66 60 62 61 59 64 58 49 44 43 39 40 42 37 41
9 11 8 8 3 10 8 7 20 31 31 9 10 31 34 39 45 50 53 57 60 60 60 56 43 48 64 62 62 65 93 104 103 86 66 63 60 59 54 53 45 42 42 38 33 43 39 39 38
7 13 9 10 7 21 12 13 13 10 17 17 24 35 44 51 58 59 58 53 56 59 58 58 55 47 51 70 66 61 61 85 87 75 64 59 62 53 43 40 39 39 37 33 38 36 34 33 33
4 7 9 6 5 3 10 13 17 16 15 13 25 25 44 54 66 75 70 60 52 56 56 51 58 59 53 62 72 67 69 81 84 75 66 64 59 48 39 36 43 40 36 30 31 33 28 30 31
11 9 4 4 7 11 10 12 19 15 19 19 22 28 55 63 74 86 91 69 48 50 59 52 56 61 63 56 70 87 88 86 84 75 69 67 60 46 40 45 44 39 32 31 35 33 32 31 35
5 4 5 5 5 7 12 14 13 20 18 20 25 43 54 69 80 78 77 62 50 46 56 51 59 61 62 59 62 74 91 89 82 75 69 64 56 45 43 46 42 36 36 36 36 33 34 35 29
12 11 9 7 7 9 6 23 15 24 20 14 37 52 63 62 65 65 73 71 49 46 45 46 53 61 59 54 64 65 77 81 76 63 59 57 48 47 45 43 41 39 41 40 36 33 28 27 28
Wind_Direction_500mb
337 268 189 197 55 65 256 253 260 319 331 233 306 279 240 240 180 214 180 171 173 167 162 162 164 161 161 154 150 150 150 150 148 146 143 143 142 141 140 136 130 124 121 116 110 106 105 104 102
336 163 195 115 100 126 266 249 273 239 267 300 308 294 246 231 195 195 159 170 175 168 164 164 167 165 165 160 157 157 156 155 154 153 152 153 153 151 148 144 142 139 132 127 121 120 114 109 109
179 193 232 113 150 202 226 225 122 288 311 299 296 311 273 231 198 176 176 171 174 172 166 167 169 169 168 168 165 165 165 163 163 162 163 165 165 163 164 165 163 157 151 149 144 141 132 131 132
165 159 76 109 236 253 210 292 344 333 324 349 304 298 268 250 216 178 172 174 175 174 169 169 170 172 173 175 173 172 173 173 174 173 176 177 179 179 180 179 179 176 174 177 174 164 162 155 141
181 135 11 255 256 246 221 270 309 290 285 309 321 281 249 240 208 182 173 176 177 175 172 173 171 176 177 180 180 179 180 181 183 184 184 188 192 193 194 195 199 201 202 209 212 213 214 203 181
175 114 101 247 250 270 273 260 279 275 303 322 332 327 264 216 190 183 179 178 178 175 174 176 176 180 180 185 185 185 187 189 190 197 197 199 206 209 212 214 218 223 225 227 232 235 244 250 240
199 134 214 253 266 308 279 307 273 279 335 324 333 273 302 232 220 189 185 180 179 180 176 178 181 182 184 188 189 192 195 197 199 203 208 210 218 224 226 230 230 235 239 241 244 242 250 258 259
212 133 211 232 252 269 10 342 308 320 309 331 345 350 332 298 207 189 186 182 182 182 182 182 183 185 187 189 193 196 199 203 206 211 215 220 226 232 234 236 238 243 246 247 249 250 251 257 263
189 195 225 230 253 302 303 354 300 319 305 321 332 350 340 282 204 191 187 184 185 185 185 187 186 189 192 191 194 198 203 207 211 216 220 226 232 236 238 241 245 249 252 252 253 254 253 256 259
178 196 217 278 254 314 302 302 304 329 318 305 320 333 354 277 208 192 190 190 189 189 191 192 192 194 196 196 199 199 207 210 215 223 227 231 237 242 246 247 249 251 252 254 255 257 256 255 259
210 235 143 260 296 316 300 299 310 310 292 288 312 318 324 324 219 208 198 206 197 195 196 197 199 200 201 201 205 206 211 216 221 228 234 239 241 247 249 250 251 252 256 257 258 259 259 259 261
251 227 223 259 277 283 273 292 287 284 270 291 298 302 305 305 302 232 224 223 213 214 203 200 203 204 207 209 211 211 213 222 226 234 239 243 246 250 253 255 258 258 260 262 266 265 266 263 263
194 320 329 318 308 289 280 267 272 278 277 293 297 296 289 273 291 276 234 237 234 230 217 209 209 210 214 217 216 217 219 227 232 241 247 249 254 256 260 262 263 263 264 264 267 270 269 268 266
321 293 295 299 286 262 257 270 264 265 282 298 300 302 297 276 278 276 265 235 241 248 226 220 215 216 217 220 221 224 227 237 243 249 252 256 259 260 262 265 266 266 268 267 267 271 272 271 268
288 327 346 253 226 216 242 258 241 268 289 286 290 292 297 285 268 261 277 268 238 242 233 231 224 219 218 222 222 227 218 251 259 259 256 256 258 261 262 264 263 265 269 267 265 268 267 266 265
352 55 38 278 321 268 200 258 320 302 332 297 301 302 306 297 275 275 255 248 254 250 243 238 229 223 216 216 215 215 236 275 254 257 258 258 257 262 266 266 265 266 271 264 264 266 268 266 261
11 330 310 307 274 278 195 304 354 322 330 315 316 322 323 328 316 279 264 250 248 244 245 239 232 221 211 214 228 241 236 263 268 265 257 255 261 266 269 270 271 267 270 268 267 266 267 262 259
291 322 261 256 297 307 297 289 298 299 297 295 306 316 325 323 319 321 297 265 244 239 236 245 236 217 215 223 226 223 219 222 254 255 249 253 260 261 265 271 272 272 268 270 267 266 263 263 262
272 286 292 274 328 342 289 302 309 289 292 289 300 312 317 317 321 326 317 312 265 245 237 235 234 232 216 220 231 233 237 240 244 245 244 250 256 260 265 268 271 273 273 278 271 266 260 259 254
269 319 321 295 336 339 315 298 302 270 268 287 293 301 313 315 316 320 323 317 318 268 246 238 235 239 238 242 246 247 246 233 235 237 242 248 256 259 263 267 270 274 277 275 269 262 258 254 246
353 135 301 292 321 276 318 295 299 310 317 306 288 292 305 313 313 312 312 310 301 293 280 254 250 246 251 240 240 241 239 235 238 240 243 248 249 254 261 266 270 272 271 271 269 262 254 253 245
337 0 316 323 354 302 88 292 289 290 278 258 283 302 307 312 306 302 299 299 293 289 296 284 259 243 248 236 242 247 244 239 239 243 246 245 249 252 260 267 268 263 261 264 267 259 251 250 243
227 237 275 272 266 275 194 249 283 14 283 272 264 274 310 319 307 305 303 298 287 286 286 294 271 248 241 236 245 243 243 240 240 246 245 245 250 254 263 268 260 256 253 258 256 246 243 248 241
5 9 339 30 20 308 227 201 290 292 278 313 347 325 315 323 321 313 313 304 297 284 282 282 292 249 244 250 250 242 238 237 241 242 242 247 250 254 266 267 260 252 248 250 249 245 245 244 238
74 54 330 338 1 238 296 321 258 284 307 216 280 301 314 319 322 322 319 314 299 294 280 281 288 268 247 245 245 244 235 238 243 236 242 249 254 258 273 269 257 239 241 243 249 244 245 232 239
241 155 164 250 236 282 296 247 252 203 246 264 277 301 316 323 325 321 316 309 303 296 290 283 283 273 258 248 249 242 238 233 232 234 246 254 256 261 274 262 245 237 238 234 248 228 225 224 235
247 185 195 193 236 282 232 281 293 218 267 271 259 291 304 314 317 316 314 305 299 297 292 286 279 273 261 243 247 242 236 232 235 239 251 250 251 259 256 246 235 234 233 244 226 216 221 228 225
178 179 282 356 278 246 253 253 246 268 267 282 288 287 304 310 310 309 311 301 288 291 297 282 278 273 262 247 242 244 246 242 245 249 252 248 247 250 233 232 227 231 230 240 219 219 230 217 222
328 306 123 196 207 240 282 254 218 242 244 255 272 282 297 306 306 305 307 296 282 291 297 283 274 270 256 248 249 244 240 241 248 251 248 243 239 230 222 224 227 230 214 219 207 219 211 214 220
202 219 168 194 251 236 234 262 241 264 285 280 273 278 290 296 314 310 312 304 279 300 298 298 276 267 258 250 244 244 241 243 243 240 238 228 227 217 218 221 223 214 210 207 204 203 204 214 225
Wind_Speed_850mb
11 4 6 3 5 9 7 14 5 13 18 6 19 18 21 41 15 12 28 79 76 80 78 71 65 61 58 59 59 58 56 52 50 48 45 40 37 35 31 28 25 23 22 20 18 17 16 15 14
5 5 3 5 7 3 11 8 6 13 22 51 54 29 15 15 48 16 61 86 84 84 80 76 70 67 61 59 58 56 56 53 50 46 42 39 35 30 27 24 22 20 18 17 16 14 14 13 12
4 6 2 7 6 11 10 9 4 15 42 44 19 48 20 9 32 49 59 86 93 87 83 78 73 71 64 61 57 56 54 52 49 44 38 34 31 28 25 23 20 18 15 13 12 11 12 11 10
8 4 3 6 20 12 8 12 13 28 47 15 25 27 18 33 20 63 82 87 95 89 84 80 76 73 69 63 58 56 53 50 46 42 37 33 30 27 24 21 18 15 13 11 10 8 8 8 8
10 5 2 7 13 9 7 14 19 19 16 43 61 17 13 26 35 65 93 90 100 92 86 82 77 75 73 65 58 53 51 48 44 40 37 32 29 26 23 20 17 15 14 12 10 8 8 7 5
5 6 3 11 19 3 6 13 15 10 35 49 32 56 9 17 40 71 84 95 93 90 87 82 77 76 73 67 59 52 49 46 41 39 35 32 30 27 24 22 20 19 18 17 16 13 12 11 9
8 8 11 11 17 10 2 5 9 15 15 18 51 8 14 25 31 66 86 101 97 90 88 83 80 77 73 69 60 53 50 46 41 40 37 34 32 30 28 27 26 24 23 23 22 19 18 19 16
9 7 7 11 25 10 3 26 26 24 17 40 34 14 43 41 44 74 89 103 99 94 86 83 81 78 76 73 64 55 51 47 42 40 38 36 36 36 36 34 32 30 30 30 29 26 24 26 24
10 5 14 18 12 8 31 16 20 32 26 39 25 43 72 18 52 74 89 97 98 94 89 86 82 79 78 74 68 60 52 49 45 43 41 40 41 42 42 40 37 36 36 36 35 34 32 32 31
9 7 12 5 5 13 51 14 38 26 53 49 47 56 47 11 38 71 86 90 90 91 89 86 82 81 79 74 71 65 58 54 50 47 46 45 43 43 45 45 43 43 42 42 42 42 40 39 39
8 12 5 7 11 16 24 47 38 29 44 33 42 55 44 34 18 36 56 64 82 92 87 86 83 79 76 74 71 66 62 56 52 50 49 47 45 46 51 52 50 49 47 48 48 48 49 45 45
9 11 8 7 27 26 26 49 43 48 71 58 43 46 50 37 27 33 38 39 62 71 91 90 86 80 78 76 72 68 62 59 55 50 52 53 51 52 55 56 55 52 51 51 52 52 52 50 48
8 5 16 19 22 24 37 37 36 76 86 62 51 47 43 36 36 35 52 46 55 66 82 90 87 80 80 81 76 70 66 62 56 55 57 56 56 56 58 58 56 53 52 53 54 53 54 53 51
9 10 19 7 19 19 18 26 25 77 43 54 53 44 35 31 29 25 27 60 61 60 80 92 91 85 91 86 76 70 61 59 55 63 63 60 59 59 57 57 55 49 48 50 50 49 51 51 48
12 10 13 9 17 16 24 27 44 72 44 53 60 60 43 29 35 31 28 23 41 62 70 84 92 89 88 79 63 62 46 38 49 61 64 65 56 57 52 52 50 42 39 42 45 43 45 45 44
8 8 7 11 12 15 16 46 10 23 29 45 44 50 37 32 29 33 31 27 25 36 61 86 87 86 81 78 72 65 48 35 46 55 60 65 55 54 54 54 52 40 38 38 38 38 40 40 41
11 1 4 14 10 9 12 12 7 40 22 37 44 38 45 39 24 33 36 39 40 37 50 66 74 76 65 67 60 31 43 67 55 67 62 65 56 55 59 61 56 45 42 43 39 41 39 41 37
11 5 5 10 11 5 21 33 12 26 26 27 36 48 55 58 47 35 28 41 45 46 50 57 65 78 82 87 85 75 63 78 101 91 70 66 60 56 60 63 60 54 47 48 46 45 40 41 33
8 8 8 9 9 12 14 33 25 20 26 25 37 43 46 48 53 43 37 30 48 54 59 60 64 66 71 77 83 86 82 80 80 102 78 75 67 57 59 65 60 59 52 53 51 48 46 42 34
2 1 6 8 12 17 26 44 29 9 14 27 35 37 45 60 60 54 45 41 30 43 66 71 74 74 96 112 107 105 100 93 92 100 85 79 68 61 60 65 61 63 57 57 56 53 54 44 39
4 5 6 10 12 9 17 40 15 6 15 36 36 41 41 47 66 66 58 46 42 44 43 72 81 73 64 87 101 98 103 105 103 96 92 78 74 61 63 62 66 63 56 55 55 53 55 46 42
6 1 6 12 12 8 7 27 35 26 20 13 27 37 52 49 56 59 65 61 50 49 46 46 67 76 68 81 91 100 110 114 111 102 95 79 69 59 60 65 66 62 54 48 45 48 49 41 50
11 4 7 5 10 6 7 8 39 11 25 28 22 30 26 32 43 49 53 54 56 52 52 47 51 67 66 65 71 92 109 117 114 104 82 65 57 56 59 64 66 58 51 42 40 44 44 43 45
3 5 10 8 2 5 13 13 31 6 11 16 9 25 29 36 44 47 51 55 59 60 55 50 43 59 76 72 70 83 98 112 114 90 66 60 62 61 59 64 58 49 44 43 39 40 42 37 41
9 11 8 8 3 10 8 7 20 31 31 9 10 31 34 39 45 50 53 57 60 60 60 56 43 48 64 62 62 65 93 104 103 86 66 63 60 59 54 53 45 42 42 38 33 43 39 39 38
7 13 9 10 7 21 12 13 13 10 17 17 24 35 44 51 58 59 58 53 56 59 58 58 55 47 51 70 66 61 61 85 87 75 64 59 62 53 43 40 39 39 37 33 38 36 34 33 33
4 7 9 6 5 3 10 13 17 16 15 13 25 25 44 54 66 75 70 60 52 56 56 51 58 59 53 62 72 67 69 81 84 75 66 64 59 48 39 36 43 40 36 30 31 33 28 30 31
11 9 4 4 7 11 10 12 19 15 19 19 22 28 55 63 74 86 91 69 48 50 59 52 56 61 63 56 70 87 88 86 84 75 69 67 60 46 40 45 44 39 32 31 35 33 32 31 35
5 4 5 5 5 7 12 14 13 20 18 20 25 43 54 69 80 78 77 62 50 46 56 51 59 61 62 59 62 74 91 89 82 75 69 64 56 45 43 46 42 36 36 36 36 33 34 35 29
12 11 9 7 7 9 6 23 15 24 20 14 37 52 63 62 65 65 73 71 49 46 45 46 53 61 59 54 64 65 77 81 76 63 59 57 48 47 45 43 41 39 41 40 36 33 28 27 28
Wind_Direction_850mb
337 268 189 197 55 65 256 253 260 319 331 233 306 279 240 240 180 214 180 171 173 167 162 162 164 161 161 154 150 150 150 150 148 146 143 143 142 141 140 136 130 124 121 116 110 106 105 104 102
336 163 195 115 100 126 266 249 273 239 267 300 308 294 246 231 195 195 159 170 175 168 164 164 167 165 165 160 157 157 156 155 154 153 152 153 153 151 148 144 142 139 132 127 121 120 114 109 109
179 193 232 113 150 202 226 225 122 288 311 299 296 311 273 231 198 176 176 171 174 172 166 167 169 169 168 168 165 165 165 163 163 162 163 165 165 163 164 165 163 157 151 149 144 141 132 131 132
165 159 76 109 236 253 210 292 344 333 324 349 304 298 268 250 216 178 172 174 175 174 169 169 170 172 173 175 173 172 173 173 174 173 176 177 179 179 180 179 179 176 174 177 174 164 162 155 141
181 135 11 255 256 246 221 270 309 290 285 309 321 281 249 240 208 182 173 176 177 175 172 173 171 176 177 180 180 179 180 181 183 184 184 188 192 193 194 195 199 201 202 209 212 213 214 203 181
175 114 101 247 250 270 273 260 279 275 303 322 332 327 264 216 190 183 179 178 178 175 174 176 176 180 180 185 185 185 187 189 190 197 197 199 206 209 212 214 218 223 225 227 232 235 244 250 240
199 134 214 253 266 308 279 307 273 279 335 324 333 273 302 232 220 189 185 180 179 180 176 178 181 182 184 188 189 192 195 197 199 203 208 210 218 224 226 230 230 235 239 241 244 242 250 258 259
212 133 211 232 252 269 10 342 308 320 309 331 345 350 332 298 207 189 186 182 182 182 182 182 183 185 187 189 193 196 199 203 206 211 215 220 226 232 234 236 238 243 246 247 249 250 251 257 263
189 195 225 230 253 302 303 354 300 319 305 321 332 350 340 282 204 191 187 184 185 185 185 187 186 189 192 191 194 198 203 207 211 216 220 226 232 236 238 241 245 249 252 252 253 254 253 256 259
178 196 217 278 254 314 302 302 304 329 318 305 320 333 354 277 208 192 190 190 189 189 191 192 192 194 196 196 199 199 207 210 215 223 227 231 237 242 246 247 249 251 252 254 255 257 256 255 259
210 235 143 260 296 316 300 299 310 310 292 288 312 318 324 324 219 208 198 206 197 195 196 197 199 200 201 201 205 206 211 216 221 228 234 239 241 247 249 250 251 252 256 257 258 259 259 259 261
251 227 223 259 277 283 273 292 287 284 270 291 298 302 305 305 302 232 224 223 213 214 203 200 203 204 207 209 211 211 213 222 226 234 239 243 246 250 253 255 258 258 260 262 266 265 266 263 263
194 320 329 318 308 289 280 267 272 278 277 293 297 296 289 273 291 276 234 237 234 230 217 209 209 210 214 217 216 217 219 227 232 241 247 249 254 256 260 262 263 263 264 264 267 270 269 268 266
321 293 295 299 286 262 257 270 264 265 282 298 300 302 297 276 278 276 265 235 241 248 226 220 215 216 217 220 221 224 227 237 243 249 252 256 259 260 262 265 266 266 268 267 267 271 272 271 268
288 327 346 253 226 216 242 258 241 268 289 286 290 292 297 285 268 261 277 268 238 242 233 231 224 219 218 222 222 227 218 251 259 259 256 256 258 261 262 264 263 265 269 267 265 268 267 266 265
352 55 38 278 321 268 200 258 320 302 332 297 301 302 306 297 275 275 255 248 254 250 243 238 229 223 216 216 215 215 236 275 254 257 258 258 257 262 266 266 265 266 271 264 264 266 268 266 261
11 330 310 307 274 278 195 304 354 322 330 315 316 322 323 328 316 279 264 250 248 244 245 239 232 221 211 214 228 241 236 263 268 265 257 255 261 266 269 270 271 267 270 268 267 266 267 262 259
291 322 261 256 297 307 297 289 298 299 297 295 306 316 325 323 319 321 297 265 244 239 236 245 236 217 215 223 226 223 219 222 254 255 249 253 260 261 265 271 272 272 268 270 267 266 263 263 262
272 286 292 274 328 342 289 302 309 289 292 289 300 312 317 317 321 326 317 312 265 245 237 235 234 232 216 220 231 233 237 240 244 245 244 250 256 260 265 268 271 273 273 278 271 266 260 259 254
269 319 321 295 336 339 315 298 302 270 268 287 293 301 313 315 316 320 323 317 318 268 246 238 235 239 238 242 246 247 246 233 235 237 242 248 256 259 263 267 270 274 277 275 269 262 258 254 246
353 135 301 292 321 276 318 295 299 310 317 306 288 292 305 313 313 312 312 310 301 293 280 254 250 246 251 240 240 241 239 235 238 240 243 248 249 254 261 266 270 272 271 271 269 262 254 253 245
337 0 316 323 354 302 88 292 289 290 278 258 283 302 307 312 306 302 299 299 293 289 296 284 259 243 248 236 242 247 244 239 239 243 246 245 249 252 260 267 268 263 261 264 267 259 251 250 243
227 237 275 272 266 275 194 249 283 14 283 272 264 274 310 319 307 305 303 298 287 286 286 294 271 248 241 236 245 243 243 240 240 246 245 245 250 254 263 268 260 256 253 258 256 246 243 248 241
5 9 339 30 20 308 227 201 290 292 278 313 347 325 315 323 321 313 313 304 297 284 282 282 292 249 244 250 250 242 238 237 241 242 242 247 250 254 266 267 260 252 248 250 249 245 245 244 238
74 54 330 338 1 238 296 321 258 284 307 216 280 301 314 319 322 322 319 314 299 294 280 281 288 268 247 245 245 244 235 238 243 236 242 249 254 258 273 269 257 239 241 243 249 244 245 232 239
241 155 164 250 236 282 296 247 252 203 246 264 277 301 316 323 325 321 316 309 303 296 290 283 283 273 258 248 249 242 238 233 232 234 246 254 256 261 274 262 245 237 238 234 248 228 225 224 235
247 185 195 193 236 282 232 281 293 218 267 271 259 291 304 314 317 316 314 305 299 297 292 286 279 273 261 243 247 242 236 232 235 239 251 250 251 259 256 246 235 234 233 244 226 216 221 228 225
178 179 282 356 278 246 253 253 246 268 267 282 288 287 304 310 310 309 311 301 288 291 297 282 278 273 262 247 242 244 246 242 245 249 252 248 247 250 233 232 227 231 230 240 219 219 230 217 222
328 306 123 196 207 240 282 254 218 242 244 255 272 282 297 306 306 305 307 296 282 291 297 283 274 270 256 248 249 244 240 241 248 251 248 243 239 230 222 224 227 230 214 219 207 219 211 214 220
202 219 168 194 251 236 234 262 241 264 285 280 273 278 290 296 314 310 312 304 279 300 298 298 276 267 258 250 244 244 241 243 243 240 238 228 227 217 218 221 223 214 210 207 204 203 204 214 225